FENGYUN 1C DEB

Satellite information

Favourite Embed

Satellite Type and Status

DEBRISIN ORBIT

Key statistics

Satellite FENGYUN 1C DEB at a glance.

Uptime

9495

Days in orbit

Revolutions

≈ 14.2

Per day

Orbit

SSO

Sun Synchronous Orbit

Inclination

96.7

Latest

Satellite identification and parameters

Extended collection of information and parameters for FENGYUN 1C DEB.

Object identification

Identified? True

Debris? True

Object name: FENGYUN 1C DEB

International designator: 1999-025DAM

Object number (NORAD): 32425

Object ID (CCSDS): 32425

Country: PEOPLES REPUBLIC OF CHINA (PRC)

Current information (Y/N): Y

RCS size: SMALL

Orbital parameters

Period: 101.693 minutes

Inclination: 96.6951 deg

SMA: 7216.946 km

Apoapsis: 1007.416 km

Periapsis: 670.207 km

RAAN: 320.9571 deg

Eccentricy: 0.0233623

Argument of periapsis: 276.0807 deg

Mean anomaly: 81.38 deg

Mean motion: 14.1603037 rev/day

Mean motion (dot): 0.00001422 rev/day2

B* drag term: 0.00056501 1/REarth

Two-line elements (TLE)

Creation date: April 26, 2025, 3:05 a.m.

Reference frame: TEME

Reference center: EARTH

Epoch: April 25, 2025, 7:16 p.m. UTC

TLE line 0: 0 FENGYUN 1C DEB

TLE line 1: 1 32425U 99025DAM 25115.80319748 .00001422 00000-0 56501-3 0 9994

TLE line 2: 2 32425 96.6951 320.9571 0233623 276.0807 81.3800 14.16030370662661

Live tracking on map

Real-time ground track for satellite FENGYUN 1C DEB.

In-orbit conjunctions

A list of the most updated potential collisions computed for object FENGYUN 1C DEB.

Target Orbit TCA Probability of collision Miss distance Type
KITSAT B SSO 2024-12-29 23:26:33 0.0001629037 333.0 (m) PAYLOAD
CZ-6A DEB SSO 2024-11-09 02:12:41 0.0009023448 57.0 (m) DEBRIS
COSMOS 1275 DEB LEO 2024-10-17 16:25:57 0.0001528328 119.0 (m) DEBRIS
CZ-6A DEB LEO 2024-10-07 05:58:07 0.0003239082 128.0 (m) DEBRIS
COSMOS 1934 LEO 2024-08-19 10:11:13 0.0001016388 880.0 (m) PAYLOAD

Associated space launch

Chinese polar orbiting meteorological satellite

FENGYUN 1C DEB was lifted into orbit during the mission ‘Long March 4B | Feng Yun 1C’, on board a Long March 4B space rocket.

The launch took place on May 10, 1999, 1:33 a.m. from Launch Complex 7.

For more information about the launch, click the button.

Launch to space Long March 4B | Feng Yun 1C
Long March 4B | Feng Yun 1C

Agency: N/A

Status: Launch Successful

Launch date: May 10, 1999, 1:33 a.m. UTC

Rocket: Long March 4B

Launch pad: Launch Complex 7

Location: Taiyuan Satellite Launch Center, People's Republic of China

...

Latest news about this satellite

There are no fresh news available about this satellite. Check back as we update our databases every day.


Newsletter sign-up

Weekly statistics, charts and insights to help you stay on top of the space industry.